Content
SEND FEEDBACK

Daily
Averages
Monthly
Summary
Canada

MONTREAL, QUEBEC


Home > North America > Canada > Quebec
Elevation: 118 feet     Latitude: 45 28N     Longitude: 073 45W

WEATHER
 
SELECT A DAY
Number of Records: 201,385;   Date Range: 1/1/95 - 10/19/14
 
SHARE

PRINT THIS DATA

[ ← Previous Day ]
WEATHER ALMANAC - JANUARY 27, 2013
[ Next Day → ]
[ °C ]   °F
Weather ElementAverageHighLow
Temperature5.5 °F12.2 °F (3:00 pm)-0.4 °F (7:00 am)
Dewpoint-7.3 °F-5 °F (1:00 am)-11.2 °F (7:00 am)
Humidity54 %66 % (1:00 am)34 % (1:00 pm)
Barometer30.50 in30.57 in (11:00 am)30.36 in (1:00 am)
Wind Speed7.8 mph11.5 mph (9:00 am)
Weather ElementAverage
Visibility20.5 mi
Wind DirectionWSW (252.2 °)

Weather ElementTotal
Precipitation---
Heating Degree Days59.1 (Base 65)
Averaged from 27 records on January 27, 2013
WEATHER CONDITIONS BREAKOUT
WIND DIRECTION BREAKOUT
WEATHER BY HOUR - JANUARY 27, 2013
[ °C ]   °F
Local TimeTemperatureDewpointHumidityBarometerVisibilityWind DirectionWind SpeedGust SpeedPrecipitationEventsConditions
1:00 AM2.0 °F-5.0 °F58 %30.36 in15.0 miWest (270°)6.9 mph
1:00 AM3.2 °F-5.8 °F66 %30.36 in15.0 miWest (280°)5.8 mphClear
2:00 AM3.2 °F-5.8 °F66 %30.38 in15.0 miWest (260°)6.9 mphClear
3:00 AM3.2 °F-7.6 °F61 %30.41 in15.0 miWest (280°)8.1 mphClear
4:00 AM1.4 °F-7.6 °F66 %30.42 in15.0 miWest (280°)6.9 mphClear
5:00 AM1.4 °F-9.4 °F61 %30.44 in15.0 miWest (280°)8.1 mphPartly Cloudy
6:00 AM1.4 °F-9.4 °F61 %30.47 in15.0 miWest (260°)8.1 mphPartly Cloudy
7:00 AM0.0 °F-10.0 °F46 %30.50 in15.0 miWest (260°)9.2 mph
7:00 AM-0.4 °F-11.2 °F60 %30.50 in15.0 miWest (260°)9.2 mphClear
8:00 AM-0.4 °F-11.2 °F60 %30.51 in15.0 miWest (270°)6.9 mphPartly Cloudy
9:00 AM1.4 °F-11.2 °F56 %30.54 in30.0 miWest (280°)11.5 mphPartly Cloudy
10:00 AM3.2 °F-9.4 °F56 %30.56 in30.0 miWest (270°)9.2 mphPartly Cloudy
11:00 AM5.0 °F-7.6 °F56 %30.57 in30.0 miWest (270°)8.1 mphClear
12:00 PM8.6 °F-5.8 °F52 %30.55 in30.0 miWest (260°)8.1 mphClear
1:00 PM9.0 °F-6.0 °F34 %30.53 in28.0 miWest (260°)8.1 mph
1:00 PM8.6 °F-5.8 °F52 %30.53 in30.0 miWest (260°)6.9 mphClear
2:00 PM10.4 °F-5.8 °F48 %30.52 in30.0 miWest (270°)11.5 mphClear
3:00 PM12.2 °F-5.8 °F45 %30.53 in30.0 miWSW (240°)11.5 mphPartly Cloudy
4:00 PM12.2 °F-5.8 °F45 %30.52 in30.0 miWest (260°)9.2 mphPartly Cloudy
5:00 PM10.4 °F-7.6 °F44 %30.54 in30.0 miWSW (240°)11.5 mphPartly Cloudy
6:00 PM8.6 °F-7.6 °F48 %30.55 in15.0 miWest (270°)11.5 mphPartly Cloudy
7:00 PM9.0 °F-6.0 °F34 %30.53 in15.0 miWest (260°)8.1 mphPartly Cloudy
7:00 PM8.6 °F-5.8 °F52 %30.53 in15.0 miWSW (250°)8.1 mphScattered Clouds
8:00 PM8.6 °F-5.8 °F52 %30.53 in15.0 miSW (230°)4.6 mphScattered Clouds
9:00 PM6.8 °F-5.8 °F56 %30.51 in15.0 miCalmPartly Cloudy
10:00 PM5.0 °F-5.8 °F61 %30.50 in15.0 miWSW (250°)2.3 mphPartly Cloudy
11:00 PM5.0 °F-5.8 °F61 %30.51 in15.0 miWSW (240°)3.5 mphScattered Clouds
Hourly data recorded from CYUL, located miles away from Montreal, Quebec







STORIES FROM OUR PARTNERS